Regional Weather Roundup
Issued by NWS

Home | Current Version | Previous Version | Text Only | Print | Product List | Glossary On
Versions: 1 2 3 4 5 6 7 8 9 10 11 12 13 14 15 16 17 18 19 20 21 22 23 24 25 26 27 28 29 30 31 32 33 34 35 36 37 38 39 40 41 42 43 44 45 46 47 48 49 50
000
ASUS43 KTOP 062059
RWRKS

WEATHER ROUNDUP FOR KANSAS
NATIONAL WEATHER SERVICE GOODLAND KS
300 PM CST FRI MAR 06 2015

NOTE:  "FAIR" INDICATES FEW OR NO CLOUDS BELOW 12,000 FEET WITH NO
SIGNIFICANT WEATHER AND/OR OBSTRUCTIONS TO VISIBILITY.

KSZ001>006-013>018-027>032-041>047-062200-
NORTHWEST KANSAS

CITY           SKY/WX    TMP DP  RH WIND       PRES   REMARKS
GOODLAND       SUNNY     60  14  16 W15G24    30.22F
HAYS           SUNNY     64  16  15 W5G21     30.21F
HILL CITY      SUNNY     65  15  14 W15G26    30.20F
RUSSELL        SUNNY     64  14  14 W13       30.19F
$$

KSZ061>065-074>080-084>089-062200-
SOUTHWEST KANSAS

CITY           SKY/WX    TMP DP  RH WIND       PRES   REMARKS
DODGE CITY     SUNNY     62  14  15 NW9G17    30.25F
ELKHART          N/A     61  19  19 SE3         N/A
GARDEN CITY    SUNNY     59  15  18 SW5       30.24F
GREAT BEND     SUNNY     64  18  16 W18G24    30.23F
LIBERAL        SUNNY     59  23  25 S3        30.29F
$$

KSZ066>073-081>083-090>101-062200-
SOUTHEAST KANSAS

CITY           SKY/WX    TMP DP  RH WIND       PRES   REMARKS
CHANUTE        SUNNY     58  28  32 SW18G28   30.30F
COFFEYVILLE    SUNNY     58  27  30 SW15G24   30.33F
HUTCHINSON     SUNNY     63  25  23 SW15      30.25F
MEDICINE LODGE   N/A     63  25  23 SW12      30.26F
NEWTON         SUNNY     59  30  33 SW17G24   30.28F
PARSONS        SUNNY     59  29  31 SW16G25   30.33F
WICHITA INTL   SUNNY     60  26  27 SW17G25   30.27F
WICHITA JABRA  SUNNY     58  26  29 SW16G23   30.28F
WINFIELD       SUNNY     60  30  32 SW18      30.31F
$$

KSZ007>012-019>026-033>040-048>060-102>105-062200-
NORTHEAST KANSAS

CITY           SKY/WX    TMP DP  RH WIND       PRES   REMARKS
CONCORDIA      SUNNY     63  16  16 W20       30.18F
EMPORIA        SUNNY     59  26  28 SW16G24   30.25F
LAWRENCE       SUNNY     59  24  26 SW14      30.24F
MANHATTAN      SUNNY     62  18  18 W15G22    30.21F
OLATHE IND     SUNNY     57  28  33 SW14G24   30.25F
OLATHE EXE     SUNNY     56  29  35 SW14G22   30.24F
SALINA         SUNNY     66  15  14 W15       30.21F
TOPEKA BILLARD SUNNY     61  21  21 W13G21    30.23F
TOPEKA FORBES  SUNNY     62  21  20 SW8       30.23F
$$


USA.gov is the U.S. government's official web portal to all federal, state and local government web resources and services.